Regional Weather Roundup
Issued by NWS

Home | Current Version | Previous Version | Graphics & Text | Print | Product List | Glossary Off
Versions: 1 2 3 4 5 6 7 8 9 10 11 12 13 14 15 16 17 18 19 20 21 22 23 24 25 26 27 28 29 30 31 32 33 34 35 36 37 38 39 40 41 42 43 44 45 46 47 48 49 50

916
ASUS43 KDMX 261808
RWRIA

WEATHER ROUNDUP FOR IOWA
NATIONAL WEATHER SERVICE DES MOINES IA
100 PM CDT TUE JUL 26 2016

NOTE: "FAIR" INDICATES FEW OR NO CLOUDS BELOW 12,000 FEET WITH NO
SIGNIFICANT WEATHER AND/OR OBSTRUCTIONS TO VISIBILITY.

* - THESE STATIONS ARE NOT NWS STATIONS...THUS NOT UNDER NWS
QUALITY CONTROL.  THEY ALSO DO NOT REPORT WEATHER SUCH
AS PRECIPITATION OR FOG.

IAZ001>003-012>014-020>022-031>034-043>046-261900-
   NORTHWEST IOWA

CITY           SKY/WX    TMP DP  RH WIND       PRES   REMARKS
CARROLL *      SUNNY     82  66  57 SE5       30.09F HX  85
CHEROKEE *     SUNNY     84  65  53 SW10      30.07F HX  85
DENISON *      SUNNY     82  66  57 S7        30.07F HX  85
LE MARS *      SUNNY     84  68  58 S13       30.07F HX  87
SHELDON *      SUNNY     82  64  54 S14       30.06F HX  84
SIOUX CITY     SUNNY     86  66  51 S13       30.06F HX  88
6HR MIN TEMP:  65; 6HR MAX TEMP:  86;

SPENCER        SUNNY     83  65  54 S9        30.08F HX  85
6HR MIN TEMP:  63; 6HR MAX TEMP:  84;

STORM LAKE *   SUNNY     82  66  57 S9        30.09F HX  85
$$

IAZ055>058-069>071-079>083-090>094-261900-
   SOUTHWEST IOWA

CITY           SKY/WX    TMP DP  RH WIND       PRES   REMARKS
ATLANTIC *     SUNNY     82  66  57 SE7       30.08F HX  85
CLARINDA *       N/A     84  66  54 MISG      30.10S HX  86
COUNCIL BLFS * SUNNY     82  64  54 S7        30.08F HX  84
CRESTON *      SUNNY     82  66  57 VRB5      30.11S HX  85
HARLAN  *      SUNNY     82  68  61 NE5       30.12F HX  85
LAMONI         SUNNY     82  66  58 VRB6      30.08F HX  84
6HR MIN TEMP:  64; 6HR MAX TEMP:  82;

RED OAK *      SUNNY     82  66  57 SE7       30.08F HX  85
SHENANDOAH *   SUNNY     84  66  54 SE8       30.08F HX  86
$$

IAZ047>049-059>061-072>074-084-261900-
   CENTRAL IOWA

CITY           SKY/WX    TMP DP  RH WIND       PRES   REMARKS
AMES           PTSUNNY   84  69  60 VRB6      30.09S HX  88
6HR MIN TEMP:  63; 6HR MAX TEMP:  84;

ANKENY *         N/A    N/A N/A N/A MISG        N/A
BOONE *        MOSUNNY   82  66  57 SE5       30.08F HX  85
CHARITON *       N/A    N/A N/A N/A MISG        N/A
DES MOINES     MOSUNNY   85  64  49 E7        30.07F HX  86
6HR MIN TEMP:  69; 6HR MAX TEMP:  86;

GRINNELL*      SUNNY     81  65  57 NE3       30.10S HX  83
KNOXVILLE *    MOSUNNY   82  61  47 VRB6      30.07F HX  83
MARSHALLTOWN   MOSUNNY   83  65  54 E5        30.09S HX  85
6HR MIN TEMP:  63; 6HR MAX TEMP:  84;

NEWTON *       MOSUNNY   82  64  54 SE7       30.08S HX  84
PELLA *        MOSUNNY   84  64  52 SE6       30.09S HX  85
PERRY *          N/A     83  68  61 SE3       30.09S HX  85
$$

IAZ004>006-015-016-023>025-035-036-261900-
   NORTH CENTRAL IOWA

CITY           SKY/WX    TMP DP  RH WIND       PRES   REMARKS
ALGONA *       SUNNY     82  68  61 S9        30.08F HX  85
ESTHERVILLE    SUNNY     82  66  58 SW12      30.07F HX  84
6HR MIN TEMP:  64; 6HR MAX TEMP:  82;

FORT DODGE *   MOSUNNY   82  66  57 SW3       30.10F HX  85
MASON CITY     MOSUNNY   84  66  54 VRB5      30.10F HX  86
6HR MIN TEMP:  64; 6HR MAX TEMP:  84;

FOREST CITY *    N/A     82  64  54 SW5       30.09F HX  84
IOWA FALLS *     N/A     84  66  53 E5        30.11S HX  86
$$

IAZ007>011-017>019-026>030-037>042-050>054-066-261900-
   NORTHEAST IOWA

CITY           SKY/WX    TMP DP  RH WIND       PRES   REMARKS
CEDAR RAPIDS   PTSUNNY   82  68  62 SE5       30.08S HX  85
6HR MIN TEMP:  64; 6HR MAX TEMP:  83;

CHARLES CITY * SUNNY     82  64  54 CALM      30.10F HX  84
DECORAH *      SUNNY     82  66  57 CALM      30.08F HX  85
DUBUQUE        PTSUNNY   82  63  52 CALM      30.09F HX  83
6HR MIN TEMP:  68; 6HR MAX TEMP:  83;

MONTICELLO *   SUNNY     82  64  54 CALM      30.08S HX  84
OELWEIN *      MOSUNNY   82  66  57 VRB3      30.10S HX  85
WATERLOO       MOSUNNY   82  64  54 CALM      30.08S HX  83
6HR MIN TEMP:  65; 6HR MAX TEMP:  84;

$$

IAZ064-065-067-068-078-261900-
   EAST CENTRAL IOWA

CITY           SKY/WX    TMP DP  RH WIND       PRES   REMARKS
DAVENPORT      SUNNY     85  64  49 E5        30.07F HX  86
6HR MIN TEMP:  67; 6HR MAX TEMP:  85;

IOWA CITY      PTSUNNY   83  66  56 E6        30.09S HX  85
6HR MIN TEMP:  68; 6HR MAX TEMP:  84;

MT. PLEASANT * MOSUNNY   85  66  52 NE6       30.06F HX  88
MUSCATINE *    MOSUNNY   84  64  51 NE9       30.06F HX  86
QUAD CITIES    MOSUNNY   86  64  47 SE8       30.05F HX  87
6HR MIN TEMP:  68; 6HR MAX TEMP:  86;

$$

IAZ062-063-075>077-085>089-095>099-261900-
   SOUTHEAST IOWA

CITY           SKY/WX    TMP DP  RH WIND       PRES   REMARKS
BURLINGTON     MOSUNNY   83  65  54 SE3       30.06F HX  85
6HR MIN TEMP:  68; 6HR MAX TEMP:  83;

FAIRFIELD *    MOSUNNY   82  64  54 NE7       30.07F HX  84
KEOKUK *       MOSUNNY   82  64  54 NE6       30.05F HX  84
CENTERVILLE *    N/A     82  66  57 E7        30.10S HX  85
OTTUMWA        MOSUNNY   83  64  52 E8        30.06F HX  84
6HR MIN TEMP:  67; 6HR MAX TEMP:  83;

WASHINGTON *   MOSUNNY   82  68  61 E6        30.08F HX  85
$$

ABBREVIATIONS USED IN REMARKS
   TC - TEMPERATURES IN CELSIUS
  WCI - WIND CHILL INDEX
   HX - HEAT INDEX
  VSB - VISIBILITY
$$





USA.gov is the U.S. government's official web portal to all federal, state and local government web resources and services.